Weather History for KNMM - October, 2011

Change the Weather History Date:

Monday, October 3, 2011

  Actual Average Record
Temperature  
Mean Temperature 58 °F -  
Max Temperature 75 °F 77 °F 93 °F (2006)
Min Temperature 42 °F 57 °F 39 °F (2003)
Degree Days  
Heating Degree Days 6    
Growing Degree Days 8 (Base 50)    
Moisture  
Dew Point 41 °F    
Average Humidity 63    
Maximum Humidity 89    
Minimum Humidity 23    
Precipitation  
Precipitation 0.00 in - - ()
Sea Level Pressure  
Sea Level Pressure 30.25 in    
Wind  
Wind Speed 1 mph (NE)    
Max Wind Speed 7 mph    
Max Gust Speed -    
Visibility 10 miles    
Events      
Averages and records for this station are not official NWS values.
T = Trace of Precipitation, MM = Missing Value Source: NWS Daily Summary

Daily Weather History Graph

Daily Weather History Graph

Search for Another Location

Airport or City:

Trip Planner

Search our weather history database for the weather conditions in past years. The results will help you decide how hot, cold, wet, or windy it might be!

Date:

Astronomy

Oct. 03, 2011 Rise Set
Actual Time 6:49 AM CDT 6:36 PM CDT
Civil Twilight 6:24 AM CDT 7:01 PM CDT
Nautical Twilight 5:56 AM CDT 7:29 PM CDT
Astronomical Twilight 5:27 AM CDT 7:58 PM CDT
Moon 1:29 PM CDT (10/3) 11:55 PM CDT (10/3)
Length of Visible Light 12h 36m
Length of Day
11h 47m
Waxing Crescent, 45% of the Moon is Illuminated
Oct 3
Waxing Crescent
Oct 3
First Quarter
Oct 11
Full
Oct 19
Last Quarter
Oct 26
New

Hourly Weather History & Observations

Time (CDT) Temp. Windchill Dew Point Humidity Pressure Visibility Wind Dir Wind Speed Gust Speed Precip Events Conditions
12:56 AM 48.0 °F - 43.0 °F 83% 30.22 in 10.0 mi Calm Calm - N/A   Clear
1:56 AM 46.9 °F - 42.1 °F 83% 30.23 in 10.0 mi Calm Calm - N/A   Clear
2:56 AM 46.0 °F - 42.1 °F 86% 30.22 in 10.0 mi Calm Calm - N/A   Clear
3:56 AM 45.0 °F 43.5 °F 41.0 °F 86% 30.23 in 10.0 mi West 3.5 mph - N/A   Clear
4:56 AM 43.0 °F - 39.9 °F 89% 30.25 in 10.0 mi Calm Calm - N/A   Clear
5:03 AM - - - N/A% - - North - - N/A   Unknown
5:56 AM 44.1 °F - 39.0 °F 82% 30.25 in 10.0 mi Calm Calm - N/A   Clear
6:56 AM 43.0 °F - 37.9 °F 82% 30.27 in 10.0 mi Calm Calm - N/A   Clear
7:11 AM 42.8 °F - 39.2 °F 87% 30.24 in 10.0 mi Calm Calm - N/A   Clear
7:56 AM 46.0 °F - 41.0 °F 83% 30.28 in 10.0 mi Calm Calm - N/A   Clear
8:56 AM 53.1 °F - 43.0 °F 69% 30.29 in 10.0 mi Calm Calm - N/A   Clear
9:56 AM 63.0 °F - 42.1 °F 46% 30.31 in 10.0 mi East 3.5 mph - N/A   Clear
10:56 AM 66.0 °F - 39.9 °F 38% 30.32 in 10.0 mi East 6.9 mph - N/A   Clear
11:56 AM 70.0 °F - 39.9 °F 33% 30.30 in 10.0 mi NNE 3.5 mph - N/A   Clear
12:00 PM - - - N/A% - - North - - N/A   Unknown
12:56 PM 71.1 °F - 37.0 °F 29% 30.27 in 10.0 mi NNE 5.8 mph - N/A   Clear
1:56 PM 73.0 °F - 37.9 °F 28% 30.25 in 10.0 mi NE 3.5 mph - N/A   Clear
2:56 PM 75.0 °F - 35.1 °F 23% 30.23 in 10.0 mi Variable 3.5 mph - N/A   Clear
3:56 PM 75.0 °F - 39.0 °F 27% 30.22 in 10.0 mi East 5.8 mph - N/A   Clear
4:56 PM 75.0 °F - 36.0 °F 24% 30.21 in 10.0 mi NNE 5.8 mph - N/A   Clear
5:56 PM 73.0 °F - 37.9 °F 28% 30.22 in 10.0 mi Calm Calm - N/A   Clear
6:56 PM 62.1 °F - 45.0 °F 53% 30.22 in 10.0 mi Calm Calm - N/A   Clear
7:56 PM 57.9 °F - 48.0 °F 70% 30.23 in 10.0 mi Calm Calm - N/A   Clear
8:56 PM 54.0 °F - 48.9 °F 83% 30.24 in 10.0 mi Calm Calm - N/A   Clear
9:56 PM 54.0 °F - 48.0 °F 80% 30.26 in 10.0 mi Calm Calm - N/A   Clear
10:56 PM 51.1 °F - 46.9 °F 86% 30.26 in 10.0 mi Calm Calm - N/A   Clear
11:56 PM 50.0 °F - 46.9 °F 89% 30.26 in 10.0 mi Calm Calm - N/A   Clear